Tracking 31027 objects as of 19-Jul-2025
HD Live streaming from Space Station
objects crossing your sky now

COSMOS 2574

Track COSMOS 2574 now!
10-day predictions


NORAD ID: 58658
Int'l Code: 2023-209A
Perigee: 327.7 km
Apogee: 329.1 km
Inclination: 96.7 °
Period: 91.0 minutes
Semi major axis: 6699 km
RCS: Unknown
Launch date: December 27, 2023
Source: Commonwealth of Independent States (former USSR) (CIS)
Launch site: PLESETSK MISSILE AND SPACE COMPLEX (PKMTR)
Your satellite tracking list
FENGYUN 1C DEB
Track 1 satellite(s)




NASA's NSSDC Master Catalog

Two Line Element Set (TLE):
1 58658U 23209A   25199.74638219  .00048312  75832-6  22572-3 0  9994
2 58658  96.6527  92.7638 0000976  81.4654 278.6728 15.83249877 81681
Source of the keplerian elements: AFSPC